Regional Weather Roundup
Issued by NWS Binghamton, NY

Home | Current Version | Previous Version | Text Only | Print | Product List | Glossary On
Versions: 1 2 3 4 5 6 7 8 9 10 11 12 13 14 15 16 17 18 19 20 21 22 23 24 25 26 27 28 29 30 31 32 33 34 35 36 37 38 39 40 41 42 43 44 45 46 47 48 49 50
000
ASUS41 KBGM 280110
RWRBGM

REGIONAL WEATHER ROUNDUP
NATIONAL WEATHER SERVICE BINGHAMTON NY
900 PM EDT TUE JUN 27 2017

Note: "fair" indicates few or no clouds below 12,000 feet with no
significant weather and/or obstructions to visibility.

* = Station(s) that does not report precipitation, such as rain,
snow, etc, also no thunder or fog.

NYZ009-015>018-022>025-036-037-044>046-055>057-062-280200
...Central New York...

CITY           SKY/WX    TMP DP  RH WIND       PRES   REMARKS
Binghamton     LGT RAIN  53  51  93 NW3       30.00R FOG
Cortland       FAIR      57  50  77 W3        30.00R
Dansville      CLOUDY    62  50  64 W7        30.02R
Elmira         CLOUDY    61  54  77 SW6       30.01R
Seneca Falls   CLOUDY    61  55  82 W7        29.99S
Ithaca         LGT RAIN  57  51  80 W9        30.02R
Hamilton       CLOUDY    54  50  87 CALM      29.99R
Hornell        LGT RAIN  55  50  82 W5        30.08R
Monticello     CLEAR     55  54  94 CALM      30.00S
Norwich        MOCLDY    55  52  88 CALM      30.00R
Oneonta        CLEAR     52 N/A N/A CALM      30.00R
Penn Yan       PTCLDY    59  50  72 SW10      30.00R
Rome           MOCLDY    55  53  93 N3        29.97R
Sidney         MOCLDY    55  55 100 CALM      30.00R
Syracuse       LGT RAIN  57  56  96 SW5       29.96S
$$

PAZ038>040-043-044-047-048-072-280200
...Northeast Pennsylvania...

CITY           SKY/WX    TMP DP  RH WIND       PRES   REMARKS
Scranton       MOCLDY    63  48  58 W5        30.00R
$$
&&
KEY
WCI = Wind Chill Index
VSB = Visibility
HX  = Heat Index
$$



USA.gov is the U.S. government's official web portal to all federal, state and local government web resources and services.